Location: Newark
(45.2500°N, 7.5833°E)
Time: 01:03:09
(UTC+00:00)

BEESAT 2 - Pass Details

Date: 24 February 2020
Orbit: 494 x 533 km, 64.9° (Epoch: 08 April)

Event Time Altitude Azimuth Distance (km) Brightness Sun altitude
Rises 18:05:04 0° 336° (NNW) 2,686 ? -10.6°
Reaches altitude 10° 18:08:58 10° 14° (NNE) 1,795 ? -11.3°
Maximum altitude 18:10:04 11° 30° (NNE) 1,735 ? -11.5°
Drops below altitude 10° 18:11:11 10° 46° (NE) 1,793 ? -11.7°
Enters shadow 18:11:13 10° 47° (NE) 1,797 ? -11.7°
